www.pogodaiklimat.ru

Погода и климат >> Архив погоды >> Индия >> Западная Бенгалия >> Дига


ПОГОДА в Диге

  • Прогноз погоды в Диге
  • Монитор погоды в Диге

АРХИВ ПОГОДЫ в Диге

Время (UTC), дата Ветер
(напр.,м/с)
 
Видим.   Явления Облачность Т
(С)
Тd
(С)
f
(%)
Тe
(С)
Тes
(С)
Комфортность P
(гПа)
Po
(гПа)
Тmin
(С)
Tmax
(С)
R
(мм)
R24
(мм)
S
(см)
12 14.04 Ю 2 4000 м 6/3 600 м
[Sc diur, vesp Ac trans Ci fib]
+31.0 +28.0 84 +51 +51 опасность
перегрева
1005.4 1004.7 +33.7
15 14.04 Ю 2 4000 м 8/4 600 м
[Sc diur, vesp Ac trans]
+29.4 +27.2 88 +47 +47 опасность
перегрева
1007.0 1006.3
18 14.04 Ю 3 4000 м 8/5 600 м
[Sc Ac trans]
+29.0 +27.1 90 +46 +46 опасность
перегрева
1006.9 1006.2
21 14.04 Ю 2 4000 м 6/4 600 м
[Sc diur, vesp Ac trans]
+28.4 +26.4 89 +43 +43 опасность
перегрева
1006.2 1005.5
00 15.04 Ю 2 4000 м 4/3 600 м
[Sc diur, vesp Ac trans]
+27.8 +25.8 89 +41 +41 опасность
перегрева
1005.6 1004.9
03 15.04 ЮЗ 2 4000 м 8/4 600 м
[Sc diur, vesp Ac trans]
+29.8 +27.0 85 +47 +51 опасность
перегрева
1008.3 1007.6 +27.0
06 15.04 Ю 3 4000 м 5/4 600 м
[Sc Ac trans]
+32.8 +27.9 76 +53 +64 опасность
перегрева
1008.2 1007.5
09 15.04 Ю 2 4000 м 4/3 600 м
[Sc diur, vesp Ac trans]
+33.8 +27.8 71 +54 +62 опасность
перегрева
1005.5 1004.8
12 15.04 Ю 1 4000 м 8/5 600 м
[Sc Ac trans]
+31.0 +27.7 83 +51 +51 опасность
перегрева
1004.8 1004.1 +34.1
15 15.04 В 2 4000 м {гроза} 4/3 600 м
[Sc diur, vesp Ac trans]
+29.8 +27.0 85 +47 +47 опасность
перегрева
1005.2 1004.5
18 15.04 Ю 2 4000 м {гроза} 3/3 1000 м
[Sc diur, vesp]
+29.2 +25.5 80 +43 +43 опасность
перегрева
1006.1 1005.4
21 15.04 ЮЗ 1 4000 м 4/3 600 м
[Sc diur, vesp Ac trans]
+28.8 +25.7 83 +43 +43 опасность
перегрева
1006.0 1005.3
00 16.04 ЮЗ 2 4000 м 6/4 600 м
[Sc diur, vesp Ac trans]
+28.0 +25.7 87 +41 +41 опасность
перегрева
1005.9 1005.2
03 16.04 З 2 4000 м 1/1 600 м
[Sc diur, vesp]
+30.0 +26.7 83 +47 +57 опасность
перегрева
1008.3 1007.6 +27.2
06 16.04 З 1 4000 м 1/1 600 м
[Sc diur, vesp]
+33.4 +27.9 73 +54 +76 опасность
перегрева
1007.8 1007.1
09 16.04 Ю 1 4000 м ясно +34.8 +28.3 69 +56 +71 опасность
перегрева
1005.4 1004.7
12 16.04 Ю 1 4000 м 4/1 600 м
[Sc diur, vesp Ac trans Ci fib]
+32.4 +28.6 80 +54 +55 опасность
перегрева
1005.5 1004.8 +34.9
15 16.04 З 1 4000 м 6/4 600 м
[Sc diur, vesp Ac trans]
+30.0 +27.5 86 +48 +48 опасность
перегрева
1007.4 1006.7
18 16.04 штиль 0 4000 м 4/3 600 м
[Sc diur, vesp Ac trans]
+29.2 +27.3 90 +47 +47 опасность
перегрева
1007.6 1006.9
21 16.04 ЮВ 1 4000 м 4/3 600 м
[Sc diur, vesp Ac trans]
+28.4 +25.6 85 +42 +42 опасность
перегрева
1007.5 1006.8
00 17.04 Ю 2 4000 м 3/3 600 м
[Sc diur, vesp]
+27.8 +26.4 92 +42 +42 опасность
перегрева
1007.5 1006.8
03 17.04 В 1 4000 м ясно +29.4 +25.1 78 +43 +55 опасность
перегрева
1010.5 1009.8 +26.4
06 17.04 В 1 4000 м 6/4 600 м
[Sc diur, vesp Ac trans]
+33.2 +27.4 72 +52 +65 опасность
перегрева
1011.1 1010.4
09 17.04 Ю 1 4000 м 6/4 600 м
[Sc Ac trans]
+34.2 +27.4 68 +53 +61 опасность
перегрева
1009.2 1008.5
12 17.04 В 1 4000 м в посл. час гроза {дождь} 5/4 600 м
[Sc Ac trans]
+25.2 +24.9 98 +36 +36 очень
душно
1007.8 1007.1 +34.4 8
15 17.04 штиль 0 4000 м 8/5 600 м
[Sc Ac trans]
+27.2 +26.1 94 +41 +41 опасность
перегрева
1010.4 1009.7 8
18 17.04 СЗ 1 4000 м 3/3 600 м
[Sc diur, vesp]
+25.6 +24.4 93 +36 +36 очень
душно
1010.5 1009.8 8
21 17.04 СЗ 1 4000 м 3/3 600 м
[Sc diur, vesp]
+24.4 +23.2 93 +33 +33 очень
душно
1009.3 1008.6 8
00 18.04 С 1 4000 м 4/3 600 м
[Sc diur, vesp Ac trans]
+23.8 +22.3 91 +31 +31 очень
душно
1009.4 1008.7 8
03 18.04 С 2 4000 м ясно +26.8 +21.4 72 +34 +46 очень
душно
1011.6 1010.9 +22.8 8
06 18.04 С 1 4000 м ясно +32.4 +22.2 55 +41 +67 опасность
перегрева
1011.6 1010.9
09 18.04 В 1 4000 м ясно +34.4 +22.2 49 +43 +58 опасность
перегрева
1008.2 1007.5
12 18.04 Ю 1 4000 м ясно +32.2 +25.5 68 +47 +47 опасность
перегрева
1007.5 1006.8 +34.8
15 18.04 штиль 0 4000 м ясно +30.0 +25.5 77 +44 +44 опасность
перегрева
1008.5 1007.8
18 18.04 ЮЗ 1 4000 м 3/0 2000 м
[Ac trans]
+28.8 +23.6 74 +39 +39 очень
душно
1008.8 1008.1
21 18.04 З 1 4000 м 3/0 2000 м
[Ac trans]
+26.8 +21.7 74 +34 +34 очень
душно
1008.7 1008.0
00 19.04 СЗ 2 4000 м 4/3 600 м
[Sc diur, vesp Ac trans]
+23.8 +19.1 75 +29 +29 душно 1008.5 1007.8
03 19.04 З 2 4000 м 5/3 600 м
[Sc diur, vesp Ac trans]
+26.0 +18.8 65 +31 +37 очень
душно
1010.2 1009.5 +22.5
06 19.04 З 1 4000 м 9/5 600 м
[Sc Ac trans]
+30.8 +21.3 57 +39 +45 очень
душно
1010.2 1009.5
09 19.04 З 1 4000 м в посл. час гроза {дождь} 10/6 600 м
[Sc Ac As]
+29.4 +24.8 76 0.5
12 19.04 В 1 4000 м {гроза, дождь} 4/3 600 м
[Sc diur, vesp Ac trans]
+29.4 +23.3 70 +40 +40 очень
душно
1005.8 1005.1 +32.0 0.5
15 19.04 Ю 1 4000 м 4/0 2000 м
[Ac trans]
+27.2 +23.4 80 +37 +37 очень
душно
1008.5 1007.8 0.5
18 19.04 С 1 4000 м 3/0 2000 м
[Ac trans Ci fib]
+23.6 +18.2 72 +28 +28 душно 1008.7 1008.0 0.5
21 19.04 СЗ 1 4000 м 8/4 600 м
[Sc Ac trans]
+22.2 +18.4 79 +27 +27 душно 1007.5 1006.8 0.5
00 20.04 З 3 4000 м слаб. дождь {гроза} 8/3 600 м
[Sc diur, vesp Ac As]
+21.4 +19.2 87 +26 +26 душно 1009.4 1008.7 2
03 20.04 С 2 4000 м {дождь} 5/1 600 м
[Sc diur, vesp Ac trans Ci sp]
+27.6 +22.6 74 +36 +44 очень
душно
1007.7 1007.0 +20.7 3
06 20.04 ЮВ 1 4000 м {дождь} ясно +31.8 +22.1 57 +41 +68 опасность
перегрева
1007.4 1006.7
09 20.04 ЮЗ 1 4000 м ясно +34.2 +24.9 58 +47 +62 опасность
перегрева
1005.3 1004.6
12 20.04 Ю 1 4000 м 1/0 2000 м
[Ac trans]
+31.2 +24.3 67 +43 +44 опасность
перегрева
1004.2 1003.5 +34.3
15 20.04 Ю 2 4000 м ясно +28.6 +24.0 76 +40 +40 очень
душно
1005.6 1004.9
18 20.04 З 3 4000 м ясно +28.4 +25.0 82 +41 +41 опасность
перегрева
1005.8 1005.1
21 20.04 З 2 4000 м 3/3 600 м
[Sc diur, vesp]
+27.8 +25.2 86 +40 +40 очень
душно
1005.5 1004.8
00 21.04 З 2 4000 м 6/4 600 м
[Sc diur, vesp Ac trans]
+27.6 +25.6 89 +41 +41 опасность
перегрева
1005.1 1004.4
03 21.04 Ю 2 4000 м 8/4 600 м
[Sc diur, vesp Ac trans Ci fib]
+30.0 +26.4 81 +46 +50 опасность
перегрева
1007.1 1006.4 +26.9
06 21.04 ЮЗ 2 4000 м 6/3 600 м
[Sc diur, vesp Ac trans Ci fib]
+32.2 +26.7 73 +50 +61 опасность
перегрева
1006.9 1006.2

 

Местоположение метеостанции Дига (Западная Бенгалия, Индия): широта 21.62 долгота 87.50 высота над уровнем моря 6 м.

В архиве по умолчанию представлена погода в Диге за последнюю неделю. Архивные данные за месяц целиком и за предыдущие месяцы, начиная с января 2011 года, Вы можете получить, выбрав интересующий диапазон дат из раскрывающегося списка и нажав кнопку "Ввод!".


*Определитесь, кто Вы:
робот инопланетянин человек

Внимание! Время в таблицах - всемирное. Для получения местного времени необходимо прибавить поправку, которая равна 5.5 ч.

Смотрите также архив погоды в соседних городах и на ближайших метеорологических станциях:

Погода в Контае (Западная Бенгалия, Индия) (31 км)
Погода в Баласоре (Орисса, Индия) (60 км)
Погода в Халдии (Западная Бенгалия, Индия) (73 км)
Погода в Барипаде (Орисса, Индия) (83 км)
Погода в Миднапуре (Западная Бенгалия, Индия) (91 км)
Погода в Даймонд Харбор (Западная Бенгалия, Индия) (95 км)
Погода в Улуберии (Западная Бенгалия, Индия) (108 км)
Погода в Чандбали (Орисса, Индия) (123 км)
Погода в Колкате (Западная Бенгалия, Индия) (133 км)
Погода в Каннинге (Западная Бенгалия, Индия) (140 км)

Пояснения к столбцам:

Ветер - указаны скорость ветра в м/с - средняя за 10 мин, порывы в срок и между сроками (в фигурных скобках) и направление, откуда дует ветер: С - северный, СВ - северо-восточный, В - восточный, ЮВ - юго-восточный, Ю - южный, ЮЗ - юго-западный, З - западный, СЗ - северо-западный.
Видимость - горизонтальная дальность видимости в метрах или километрах. При видимости от 1 до 10 км при отсутствии осадков обычно наблюдается дымка, при ухудшении видимости до 1 км и менее - туман. В сухую погоду видимость может ухудшаться дымом, пылью или мглою.
Явления - указаны атмосферные явления, наблюдавшиеся в срок или в последний час перед сроком; фигурными скобками обозначены явления, наблюдавшиеся между сроками (за 1-3 часа до срока); квадратными скобками обозначены град или гололедные отложения с указанием их диаметра в мм.
Облачность - указаны через наклонную черту общая и нижняя облачность в баллах и высота нижней границы облаков в метрах; квадратными скобками обозначены формы облаков: Ci - перистые, Cs - перисто-слоистые, Cc - перисто-кучевые, Ac - высококучевые, As - высокослоистые, Sc - слоисто-кучевые, Ns - слоисто-дождевые, Cu - кучевые, Cb - кучево-дождевые. Подробнее классификацию облаков см. в Атласе облаков (PDF).
T - Температура воздуха - температура, измеренная на высоте 2 м над землей.
Td - Температура точки росы - температура, при понижении до которой содержащийся в воздухе водяной пар достигнет насыщения.
f - Относительная влажность воздуха - влажноcть воздуха, измеренная на высоте 2 м над землей.
Te - Эффективная температура - температура, которую ощущает одетый по сезону человек в тени. Характеристика душности погоды. При расчете учитывается влияние влажности воздуха и скорости ветра на теплоощущения человека.
Tes - Эффективная температура на солнце - температура, которую ощущает человек, с поправкой на солнечный нагрев. Характеристика знойности погоды. Зависит от высоты солнца над горизонтом, облачности и скорости ветра. Ночью, в пасмурную погоду, а также при ветре 12 м/с и более поправка равна нулю.
P - Атмосферное давление - приведенное к уровню моря атмосферное давление.
Po - Атмосферное давление - измеренное на уровне метеостанции атмосферное давление.
Tmin - Минимальная температура - минимум температуры воздуха на высоте 2 м над землей.
Tmax - Максимальная температура - максимум температуры воздуха на высоте 2 м над землей.
R - Количество осадков - Количество выпавших осадков за период времени, мм. При наведении курсора мыши на число - период времени, за который выпало указанное количество осадков.
R24 - Количество осадков - Количество выпавших осадков за 24 часа, мм.
S - Снежный покров - Высота снежного покрова, см. При наведении курсора мыши на число - состояние снежного покрова и степень покрытия местности в баллах.